STARLINK-1552 (46076 NORAD) Tracking and Keplerian Element Data

This shows tracking and keplerian element data for the satellite.

Feedback or suggestion? Click here.




ElementValue
Catalog46076
NameSTARLINK-1552
Epoch Orbit1929
Epoch Day336.62318762
Epoch Year2020
RAAN94.0883
Inclination53.0021
Eccentricity9.86E-05
Argument of Perigee101.4971
Mean Anonmoly258.6128
Mean Motion15.05573964
Decay Rate-2.4E-06
L11 46076U 20055BB 20336.62318762 -.00000240 00000-0 27175-5 0 9998
L22 46076 53.0021 94.0883 0000986 101.4971 258.6128 15.05573964 19292

Live tracking and technical data element details for STARLINK-1552 (NORAD 46076). STARLINK-1552 can be tracked NOW for your location showing map with azimuth and elevation plus other details from your city location.

Track the satellite on the map from your city or location and see movement details for azimuth, elevation, latitude, longitude, range, height, and movement on the map or in text.







IsCatalogInMostPopularTable: catalog: 46076, numindb: 31
Update: records affected: 1



GetName: 46076 STARLINK-1552

Hit Count: updated at: Thu, 03 Dec 2020 08:10:47 GMT